Temperature
19 19 19 18 18 18 18 18 17 17 17 17 16 16 16 16 15 15 15 15 15 15 15 15 15 14 14 14 14 14 14 14 14 14 13 13 13 13 13 13 13 13 13
19 19 18 18 18 18 18 17 17 17 17 17 16 16 16 16 15 15 15 15 15 15 15 15 15 14 14 14 14 14 14 13 13 13 13 13 13 13 13 13 13 13 13
18 18 18 18 18 18 17 17 17 17 17 16 16 16 15 15 15 15 15 15 15 15 15 15 14 14 14 14 14 14 14 13 13 13 13 13 12 12 12 12 12 13 13
18 18 18 18 18 17 17 17 17 17 17 16 16 16 16 15 15 15 15 15 15 15 14 14 14 14 14 14 14 14 14 13 13 13 13 13 13 12 12 12 12 12 12
18 18 18 18 18 17 17 17 17 17 16 16 16 16 16 15 15 15 15 15 14 14 14 14 14 14 14 14 14 13 13 13 13 13 13 13 13 12 12 11 12 12 12
18 18 18 18 17 17 17 17 17 16 16 16 16 16 15 15 15 15 15 14 14 14 14 14 14 14 14 14 13 13 13 13 13 13 13 13 13 12 12 12 11 11 11
18 18 18 17 17 17 17 16 16 16 16 16 15 15 15 15 15 15 14 14 14 14 14 14 14 14 14 13 13 13 13 13 13 13 12 12 12 12 12 12 11 11 11
18 18 18 17 17 17 17 16 16 16 16 15 15 15 15 15 14 14 14 14 14 14 14 14 14 13 13 13 13 13 13 13 13 12 12 12 12 12 12 12 12 11 11
17 18 17 17 17 17 16 16 16 16 15 15 15 15 15 14 14 14 14 14 14 14 13 13 13 13 13 13 13 13 13 12 12 12 12 12 12 12 12 12 12 11 11
17 17 17 17 17 17 16 16 16 16 15 15 15 15 14 14 14 14 14 14 13 13 13 13 13 13 13 13 13 12 12 12 12 12 12 12 12 12 12 11 11 11 11
17 17 17 17 17 17 16 16 16 16 15 15 15 14 14 14 14 14 14 13 13 13 13 13 13 13 13 12 12 12 12 12 12 12 12 12 11 11 11 11 11 11 11
17 17 17 17 16 16 16 16 16 15 15 15 15 14 14 14 14 14 13 13 13 13 13 13 13 12 12 12 12 12 12 12 12 12 11 11 11 11 11 11 11 11 11
16 16 16 16 16 16 16 16 15 15 15 15 14 14 14 14 14 13 13 13 13 13 12 12 12 12 12 12 12 12 12 11 11 11 11 11 11 11 11 11 11 10 10
16 16 15 15 15 15 15 15 15 15 15 14 14 14 14 14 13 13 13 13 13 12 12 12 12 12 12 12 12 11 11 11 11 11 11 11 11 11 11 10 10 10 10
15 15 15 15 15 15 15 15 15 14 14 14 14 14 14 13 13 13 13 12 12 12 12 12 12 12 12 11 11 11 11 11 11 11 11 11 10 10 10 10 10 10 10
15 15 15 15 15 14 14 14 14 14 14 14 14 13 13 13 13 13 12 12 12 12 12 12 12 11 11 11 11 11 11 11 11 11 10 10 10 10 10 10 10 10 10
15 15 14 14 14 14 14 14 14 14 13 13 13 13 13 13 13 12 12 12 12 12 11 11 11 11 11 11 11 11 11 10 10 10 10 10 10 10 10 10 9 9 9
15 14 14 14 14 14 14 14 14 13 13 13 13 13 13 13 12 12 12 12 11 11 11 11 11 11 11 10 10 10 10 10 10 10 10 10 10 10 9 9 9 9 9
15 14 14 14 14 14 13 13 13 13 13 13 13 13 12 12 12 12 12 11 11 11 11 11 11 11 10 10 10 10 10 10 10 10 9 9 9 9 9 9 9 9 9
14 14 14 13 13 13 13 13 13 13 13 13 12 12 12 12 12 11 11 11 11 11 11 10 10 10 10 10 10 10 10 10 9 9 9 9 9 9 9 9 9 9 9
14 13 13 13 13 13 13 13 13 12 12 12 12 12 12 11 11 11 11 11 10 10 10 10 10 10 10 10 9 9 9 9 9 9 9 9 9 9 9 8 8 8 8
13 13 13 13 12 12 12 12 12 12 12 12 11 11 11 11 11 10 10 10 10 10 10 10 10 9 9 9 9 9 9 9 9 9 9 8 8 8 8 8 8 8 8
13 13 12 12 12 12 12 12 12 11 11 11 11 11 11 10 10 10 10 10 9 9 9 9 9 9 9 9 9 9 9 8 8 8 8 8 8 8 8 8 8 7 7
12 12 12 12 11 11 11 11 11 11 11 11 11 10 10 10 10 10 10 9 9 9 9 9 9 9 9 9 9 8 8 8 8 8 8 8 8 8 8 8 7 7 7
12 11 11 11 11 11 11 11 11 11 11 10 10 10 10 10 9 9 9 9 9 9 9 9 8 8 8 9 8 8 8 8 8 8 8 8 7 7 7 7 7 7 7
11 11 11 11 11 11 10 10 10 10 10 10 10 10 9 9 9 9 9 9 9 8 8 8 8 8 8 8 8 8 8 8 8 7 7 7 7 7 7 7 7 7 6
Wind_Speed
5 6 6 7 6 6 5 5 5 4 4 3 3 2 2 1 2 2 3 5 5 5 5 4 3 4 4 3 4 4 4 3 2 4 3 4 4 4 3 3 3 3 4
4 5 6 6 6 6 5 5 5 5 5 4 3 3 3 2 1 1 2 3 4 4 5 4 3 3 4 4 3 3 3 1 2 2 2 2 4 4 4 3 3 3 3
8 7 7 6 6 6 6 6 6 5 5 5 4 3 3 3 2 1 1 1 3 3 4 4 3 3 3 3 3 3 4 2 0 1 3 3 1 1 3 3 3 3 3
8 7 7 6 6 6 6 6 5 5 5 6 6 6 4 3 3 2 1 1 2 3 4 4 4 3 3 3 2 2 2 3 1 0 1 2 3 2 1 3 3 3 3
10 9 8 7 6 5 5 5 5 5 5 5 7 6 4 3 2 2 2 1 1 2 3 4 4 3 2 2 2 2 2 2 3 2 1 2 2 2 2 1 2 3 2
9 9 8 6 5 4 4 4 5 4 4 5 5 6 6 5 4 3 2 1 1 1 2 4 3 3 2 2 2 2 3 2 2 2 2 2 2 2 2 2 1 1 2
9 9 8 7 6 6 5 5 5 4 4 5 5 6 6 6 6 4 3 2 1 1 2 2 3 2 2 2 2 2 2 2 2 2 2 2 2 3 3 2 1 1 2
9 9 9 8 8 8 7 6 6 5 5 5 6 6 6 5 4 4 4 3 2 2 2 2 3 3 2 2 2 2 1 2 2 2 2 1 1 2 3 3 3 1 1
8 8 8 8 7 8 8 7 7 5 5 6 6 6 6 5 5 4 3 2 2 2 2 2 2 2 2 2 3 2 2 2 1 1 1 1 1 1 2 3 4 4 2
6 6 6 7 7 7 7 7 6 6 5 5 6 5 5 6 5 4 4 3 3 2 2 2 2 2 2 2 2 2 2 2 1 1 2 1 1 1 1 2 2 2 3
6 6 5 6 6 6 6 6 5 5 4 4 4 5 5 5 5 5 5 4 3 3 3 2 2 2 2 2 2 2 2 2 1 1 2 1 1 1 1 2 2 2 2
4 4 4 4 4 5 5 5 5 5 5 5 4 4 4 5 5 5 5 4 4 3 3 3 2 2 2 2 3 3 3 3 2 2 2 1 1 1 1 1 1 1 2
4 4 3 4 4 4 4 4 4 5 4 4 4 3 4 5 5 5 5 4 4 3 3 3 3 2 2 2 3 3 3 3 3 3 3 3 2 1 1 1 1 1 1
5 4 3 3 3 4 4 3 3 3 3 3 4 4 5 5 5 5 5 5 5 4 3 3 3 3 2 2 2 2 3 3 2 3 3 3 3 3 3 2 2 2 2
5 5 4 4 3 3 3 3 3 3 4 4 4 4 4 4 4 4 4 3 3 4 4 3 2 2 2 2 2 2 3 2 2 2 3 3 4 4 3 2 2 2 2
5 5 4 4 4 4 4 3 3 3 4 4 4 4 4 4 4 4 4 4 3 3 3 2 2 2 2 2 3 3 3 3 3 2 2 2 2 3 3 3 4 4 3
4 4 4 5 5 5 5 5 4 4 4 4 4 4 5 5 4 4 4 4 4 3 3 2 2 3 3 3 3 4 3 3 3 3 2 2 2 1 1 2 2 2 3
4 4 4 4 4 4 3 4 3 4 4 4 3 4 5 5 4 4 4 4 4 4 4 3 3 2 3 2 3 3 3 2 2 3 3 3 2 2 2 2 1 0 1
4 3 3 3 3 3 3 4 3 3 4 4 4 4 5 5 5 5 5 4 3 3 4 3 3 3 3 2 2 3 2 2 2 2 3 3 3 4 4 4 2 1 1
1 2 1 1 2 2 3 4 3 4 4 4 5 4 4 5 6 6 5 3 3 4 4 3 3 3 4 3 3 2 2 2 2 1 2 4 4 4 5 4 4 2 2
1 2 2 2 2 2 3 3 3 4 5 4 3 3 4 4 5 5 4 4 3 3 3 3 3 3 3 4 3 3 3 3 3 3 2 3 4 4 5 5 4 5 3
1 2 2 1 1 1 3 2 3 4 3 3 3 3 3 3 3 3 3 3 4 3 3 3 3 3 3 3 4 4 4 3 3 4 3 4 5 5 4 4 3 4 3
2 2 2 1 1 1 3 3 3 2 3 3 3 3 3 2 3 4 3 3 3 3 3 3 3 3 3 3 4 4 5 5 3 3 4 5 5 4 3 3 3 3 2
1 1 2 1 1 2 2 3 2 3 4 4 3 3 3 3 3 3 3 4 4 4 3 3 4 3 3 3 3 3 4 4 3 3 3 3 3 3 3 2 2 2 3
2 2 3 3 3 2 2 2 2 3 4 4 4 3 4 4 3 3 3 4 5 6 5 5 5 4 5 6 6 4 4 3 3 2 1 1 1 2 2 1 2 2 2
1 1 2 2 3 2 2 2 2 3 4 3 3 3 3 3 3 3 1 2 3 4 5 6 5 5 6 6 5 5 5 4 4 2 2 3 3 3 3 3 3 2 3
Wind_Direction
179 162 157 157 149 143 146 157 150 149 136 129 126 122 119 118 96 96 103 102 106 113 111 105 103 100 106 111 113 109 91 76 86 78 43 19 24 40 32 45 61 55 66
169 166 158 156 159 160 156 154 157 158 156 156 151 148 143 142 140 106 95 107 112 118 120 119 120 114 111 103 108 114 112 108 93 108 95 37 7 6 19 29 54 44 59
175 176 165 163 160 164 167 167 165 164 160 147 125 104 78 61 54 70 89 121 122 123 124 123 119 122 126 134 141 138 137 147 8 107 130 131 191 323 349 6 23 29 40
173 170 160 159 165 176 170 167 170 168 163 148 141 143 148 160 195 183 170 140 115 125 131 128 125 126 130 140 158 148 144 141 155 34 68 133 151 146 341 338 351 11 30
176 174 174 173 170 170 166 163 164 168 167 158 155 155 155 171 167 144 130 120 102 121 130 132 129 129 133 142 135 131 137 147 156 155 128 87 76 105 137 241 319 348 344
179 177 178 168 159 155 155 160 158 171 167 161 163 165 162 158 147 155 162 159 134 126 129 133 132 138 138 147 147 138 139 146 143 145 144 151 153 167 149 177 240 296 311
178 176 174 171 168 166 170 167 166 175 172 167 171 172 168 164 165 172 176 170 160 178 192 148 144 147 151 151 142 137 144 148 146 162 167 174 183 165 155 151 186 252 299
179 181 184 184 181 180 179 172 176 184 180 175 178 177 171 167 173 177 173 177 186 194 188 162 152 147 138 134 128 130 153 143 154 165 158 156 193 168 160 161 157 139 331
177 181 184 186 183 182 183 181 180 182 185 184 181 180 177 174 178 178 170 168 172 183 172 158 143 140 133 126 127 130 144 132 138 154 143 140 178 163 155 156 160 157 180
177 180 186 188 186 184 183 180 178 182 185 182 182 181 183 181 176 165 162 165 175 168 155 151 141 139 138 136 130 133 141 123 135 141 121 112 147 139 136 150 157 162 168
183 182 184 188 183 179 180 181 181 181 181 179 179 176 181 179 169 170 175 172 168 155 154 158 158 160 158 149 143 156 150 142 155 145 140 140 145 127 133 140 144 156 152
167 161 164 170 176 178 182 183 184 184 189 184 178 179 173 164 166 174 179 169 169 168 166 162 154 155 156 159 160 175 173 169 175 185 163 186 149 127 151 153 170 180 170
135 129 134 156 170 174 179 188 187 189 187 175 172 170 168 163 173 178 177 172 171 168 162 155 157 165 167 173 177 175 183 186 191 190 188 199 167 172 188 182 183 194 179
155 153 162 176 177 173 173 175 183 185 177 169 170 169 176 176 177 175 173 175 173 167 169 170 175 176 177 179 180 179 179 187 201 204 202 201 193 196 191 188 186 167 150
169 173 177 180 177 177 180 180 180 172 168 165 171 181 178 174 163 159 163 162 161 167 174 167 173 180 181 193 184 187 185 182 197 216 213 208 206 205 196 187 180 162 152
192 191 186 181 186 187 182 178 180 180 166 172 184 180 170 167 164 163 155 146 149 155 153 171 179 194 226 222 191 181 183 184 192 208 224 222 212 211 199 184 181 174 172
197 194 199 202 203 198 186 180 188 183 173 180 188 182 173 170 174 167 161 165 168 162 166 187 196 220 243 225 198 187 175 179 194 200 209 229 224 200 189 194 179 187 189
197 204 206 214 215 199 188 180 175 176 183 182 182 186 179 177 170 165 178 186 180 178 188 205 213 225 251 233 196 182 171 179 205 209 209 205 211 208 175 161 148 199 243
199 207 213 209 204 201 188 167 169 174 178 186 190 191 184 179 175 180 190 194 183 188 197 202 208 219 246 238 185 164 172 181 228 241 224 203 205 214 183 160 162 190 298
173 185 196 162 180 214 170 155 170 172 190 197 198 193 182 179 185 193 198 195 189 198 199 207 214 217 234 241 212 180 175 192 223 244 244 230 220 214 189 174 175 199 248
164 153 143 162 199 200 158 167 183 205 211 195 183 181 186 188 187 188 193 188 189 194 206 213 229 231 238 242 228 204 189 199 210 216 232 242 229 212 197 186 191 211 203
165 152 142 172 200 165 150 177 212 221 193 168 167 178 186 191 179 179 191 189 187 192 202 211 236 247 248 242 234 224 220 212 205 223 228 229 226 221 212 205 203 191 168
191 174 153 165 227 186 168 195 226 193 161 155 172 185 193 196 179 175 184 188 188 198 211 215 232 248 247 250 250 238 231 224 219 230 231 225 222 219 214 210 193 172 153
204 180 156 173 248 242 210 209 209 172 160 173 189 194 191 194 190 188 186 189 196 204 216 225 235 245 247 244 242 237 234 229 229 235 229 215 206 197 199 195 186 177 180
221 187 190 206 237 246 247 223 183 166 175 190 199 201 197 190 193 198 203 203 212 205 206 215 216 223 242 247 238 225 230 227 223 204 169 171 192 198 196 187 186 178 172
207 197 211 223 243 244 252 242 201 180 184 200 210 209 203 195 187 187 230 262 236 241 230 224 222 232 240 247 243 235 232 230 204 164 186 204 206 203 202 198 196 189 196
Height
1513 1514 1516 1517 1519 1520 1521 1522 1523 1524 1525 1526 1526 1527 1527 1527 1527 1527 1527 1527 1527 1527 1527 1526 1526 1526 1526 1526 1526 1526 1525 1526 1526 1526 1526 1527 1528 1528 1528 1528 1527 1528 1528
1511 1512 1514 1516 1517 1518 1519 1520 1521 1523 1524 1524 1525 1526 1526 1527 1527 1527 1527 1527 1527 1527 1526 1526 1526 1526 1525 1525 1525 1525 1525 1525 1526 1526 1526 1527 1529 1528 1528 1528 1527 1527 1528
1508 1510 1511 1513 1515 1516 1517 1519 1520 1521 1522 1523 1524 1525 1526 1526 1526 1526 1526 1526 1526 1526 1526 1526 1525 1525 1525 1525 1525 1525 1525 1525 1526 1526 1526 1526 1527 1527 1528 1527 1527 1527 1527
1505 1507 1509 1511 1512 1514 1515 1517 1518 1519 1520 1521 1522 1523 1523 1524 1524 1525 1525 1525 1526 1526 1525 1525 1525 1525 1524 1524 1524 1524 1524 1524 1525 1525 1525 1526 1526 1526 1527 1527 1527 1527 1526
1503 1505 1507 1509 1510 1512 1514 1515 1516 1517 1518 1519 1520 1521 1522 1523 1523 1524 1524 1524 1524 1524 1524 1524 1524 1524 1523 1523 1523 1523 1523 1524 1524 1524 1524 1525 1525 1525 1525 1525 1525 1525 1525
1501 1503 1505 1507 1509 1511 1512 1513 1514 1515 1516 1517 1518 1519 1520 1521 1521 1522 1522 1522 1522 1523 1523 1523 1523 1522 1522 1522 1522 1522 1522 1522 1523 1523 1523 1523 1523 1523 1524 1523 1523 1523 1524
1498 1501 1503 1505 1507 1508 1510 1511 1512 1513 1514 1515 1516 1517 1518 1519 1519 1520 1520 1520 1521 1521 1521 1521 1521 1521 1521 1521 1521 1521 1521 1521 1521 1521 1522 1522 1522 1522 1522 1522 1522 1522 1522
1496 1498 1500 1502 1504 1505 1507 1508 1509 1510 1512 1512 1514 1515 1516 1516 1517 1518 1518 1518 1519 1519 1519 1519 1519 1519 1519 1519 1519 1519 1519 1519 1520 1520 1520 1520 1520 1521 1521 1521 1521 1521 1521
1494 1496 1498 1500 1501 1503 1504 1506 1507 1508 1509 1510 1511 1512 1513 1514 1514 1515 1516 1516 1517 1517 1517 1518 1518 1518 1518 1518 1518 1518 1518 1518 1518 1518 1518 1518 1518 1519 1519 1519 1519 1520 1519
1493 1494 1496 1498 1499 1500 1502 1504 1505 1505 1506 1507 1508 1509 1510 1511 1512 1513 1513 1514 1515 1515 1515 1515 1516 1516 1516 1516 1516 1516 1516 1516 1516 1516 1516 1516 1516 1516 1517 1517 1517 1518 1518
1491 1492 1493 1495 1497 1498 1500 1501 1502 1503 1504 1505 1506 1507 1507 1508 1509 1510 1511 1511 1512 1512 1513 1513 1513 1513 1513 1513 1513 1513 1514 1514 1514 1514 1514 1514 1515 1514 1514 1515 1515 1515 1516
1490 1491 1492 1493 1495 1496 1497 1498 1499 1500 1501 1502 1503 1504 1505 1505 1506 1507 1508 1509 1510 1510 1510 1511 1511 1511 1511 1511 1511 1511 1511 1512 1512 1512 1512 1512 1513 1513 1512 1512 1512 1513 1513
1489 1489 1490 1491 1492 1494 1495 1496 1497 1498 1499 1500 1501 1501 1502 1502 1503 1504 1505 1506 1507 1508 1508 1508 1508 1508 1508 1508 1509 1509 1509 1509 1510 1510 1510 1510 1511 1510 1511 1511 1510 1511 1511
1487 1488 1489 1490 1491 1492 1493 1494 1495 1497 1497 1498 1498 1498 1499 1499 1500 1502 1503 1504 1504 1505 1505 1506 1506 1506 1506 1506 1506 1506 1507 1507 1507 1508 1508 1508 1509 1509 1509 1509 1509 1509 1509
1486 1486 1487 1488 1489 1490 1491 1492 1493 1494 1495 1495 1496 1496 1497 1497 1498 1499 1500 1501 1502 1502 1503 1503 1503 1503 1503 1503 1503 1504 1504 1504 1505 1505 1506 1506 1507 1507 1507 1507 1507 1507 1507
1484 1485 1485 1486 1487 1488 1489 1490 1491 1492 1493 1493 1493 1494 1495 1495 1496 1496 1497 1498 1499 1500 1500 1501 1501 1501 1501 1501 1501 1501 1501 1502 1502 1502 1503 1504 1504 1504 1504 1505 1505 1505 1505
1482 1483 1483 1484 1484 1485 1486 1487 1488 1489 1490 1491 1491 1492 1493 1493 1493 1494 1495 1495 1496 1497 1497 1498 1498 1498 1498 1499 1499 1499 1499 1499 1499 1500 1500 1501 1501 1502 1502 1502 1502 1502 1503
1480 1481 1481 1482 1483 1483 1484 1485 1486 1487 1487 1488 1489 1489 1490 1490 1491 1491 1492 1493 1493 1494 1495 1495 1495 1495 1496 1496 1496 1496 1497 1497 1497 1497 1498 1498 1499 1499 1499 1499 1499 1499 1500
1478 1479 1479 1480 1480 1481 1482 1483 1483 1484 1484 1485 1486 1486 1487 1488 1488 1489 1489 1490 1490 1491 1492 1492 1492 1493 1493 1493 1493 1494 1494 1494 1494 1494 1495 1495 1496 1496 1496 1496 1496 1497 1497
1476 1477 1477 1478 1478 1478 1479 1480 1480 1481 1481 1482 1483 1483 1484 1485 1485 1486 1486 1487 1488 1488 1489 1489 1489 1490 1490 1490 1490 1491 1491 1490 1490 1491 1491 1492 1493 1493 1493 1493 1493 1493 1494
1474 1475 1475 1475 1475 1476 1476 1477 1477 1477 1478 1479 1480 1480 1481 1481 1482 1482 1483 1484 1484 1485 1485 1486 1486 1486 1487 1487 1487 1487 1487 1487 1487 1487 1487 1488 1489 1489 1490 1490 1490 1491 1491
1472 1472 1473 1473 1473 1474 1473 1474 1474 1475 1476 1476 1476 1477 1477 1478 1479 1479 1480 1480 1481 1481 1481 1482 1483 1483 1483 1484 1484 1484 1484 1484 1484 1484 1484 1485 1485 1486 1486 1487 1487 1488 1488
1470 1470 1470 1470 1470 1470 1471 1471 1472 1472 1472 1473 1473 1473 1474 1475 1475 1476 1476 1477 1477 1478 1477 1478 1479 1479 1479 1480 1480 1480 1480 1480 1480 1480 1481 1481 1481 1482 1483 1483 1484 1484 1484
1468 1468 1468 1468 1468 1468 1468 1468 1469 1469 1469 1470 1470 1470 1471 1471 1472 1473 1473 1473 1473 1474 1474 1475 1475 1475 1475 1475 1476 1476 1476 1476 1476 1476 1477 1477 1478 1478 1479 1479 1480 1480 1481
1465 1466 1466 1465 1465 1465 1465 1465 1466 1466 1466 1466 1467 1467 1467 1468 1468 1469 1469 1470 1470 1470 1471 1471 1471 1471 1470 1471 1471 1471 1472 1472 1472 1472 1472 1473 1473 1473 1474 1475 1476 1476 1477
1463 1463 1463 1463 1463 1462 1462 1462 1462 1463 1463 1463 1463 1464 1464 1464 1465 1465 1466 1466 1467 1467 1467 1467 1467 1467 1467 1467 1467 1467 1468 1468 1468 1468 1468 1468 1469 1469 1470 1471 1471 1472 1473